Location: St. Louis
(38.6270°N, 90.1994°W)
Time: 10:49:13
(UTC-06:00)

S-56A Canister/Altair - Pass Details

Date: 06 December 2021
Orbit: 634 x 2499 km, 38.9° (Epoch: 26 January)

Event Time Altitude Azimuth Distance (km) Brightness Sun altitude
Rises 02:00:55 0° 273° (W) 4,754 - -58.1°
Reaches altitude 10° 02:04:34 10° 274° (W) 3,464 - -57.5°
Maximum altitude 02:12:48 89° 7° (N) 1,003 - -56.0°
Drops below altitude 10° 02:18:17 10° 96° (E) 2,357 - -54.9°
Sets 02:20:22 0° 96° (E) 3,155 - -54.5°
